TRA3629 GCLP-LPMA

Flight info

Callsign TRA3629
Flight time 0h 54m
Altitude 38000
Route BIMBO DCT EKNOT
Aircraft A20N/M-SDE2E3FGHIRWXY/LB1

Departure

Time 2026-05-05 18:09
Airport Gran Canaria Airport (GCLP)

Arrival

Time 2026-05-05 19:04
Airport Cristiano Ronaldo International Airport (LPMA)
Time Latitude Longitude Altitude Speed Heading
2026-05-05 17:52 27.93201 -15.38931 108 ft 0 kts 292°
2026-05-05 17:58 27.93200 -15.38929 108 ft 1 kts 292°
2026-05-05 17:58 27.93195 -15.38914 107 ft 2 kts 291°
2026-05-05 17:58 27.93191 -15.38903 106 ft 1 kts 292°
2026-05-05 17:58 27.93187 -15.38887 105 ft 2 kts 270°
2026-05-05 17:59 27.93189 -15.38870 103 ft 2 kts 252°
2026-05-05 17:59 27.93194 -15.38856 102 ft 2 kts 234°
2026-05-05 17:59 27.93204 -15.38844 102 ft 2 kts 215°
2026-05-05 17:59 27.93212 -15.38839 102 ft 0 kts 204°
2026-05-05 18:00 27.93219 -15.38836 102 ft 0 kts 202°
2026-05-05 18:04 27.93123 -15.38885 102 ft 19 kts 207°
2026-05-05 18:04 27.92999 -15.38944 102 ft 19 kts 202°
2026-05-05 18:04 27.92877 -15.38996 104 ft 18 kts 202°
2026-05-05 18:05 27.92760 -15.39046 107 ft 16 kts 202°
2026-05-05 18:05 27.92658 -15.39092 110 ft 14 kts 201°
2026-05-05 18:05 27.92567 -15.39132 113 ft 13 kts 202°
2026-05-05 18:05 27.92488 -15.39167 116 ft 11 kts 201°
2026-05-05 18:06 27.92416 -15.39198 118 ft 10 kts 201°
2026-05-05 18:06 27.92368 -15.39219 120 ft 12 kts 203°
2026-05-05 18:06 27.92208 -15.39291 122 ft 21 kts 201°
2026-05-05 18:06 27.92099 -15.39308 123 ft 15 kts 175°
2026-05-05 18:07 27.92028 -15.39302 121 ft 6 kts 177°
2026-05-05 18:07 27.92010 -15.39301 120 ft 0 kts 175°
2026-05-05 18:08 27.91969 -15.39295 120 ft 15 kts 168°
2026-05-05 18:08 27.91933 -15.39218 115 ft 12 kts 39°
2026-05-05 18:08 27.91967 -15.39199 114 ft 0 kts 22°
2026-05-05 18:08 27.92145 -15.39120 109 ft 64 kts 21°
2026-05-05 18:09 27.92769 -15.38846 91 ft 129 kts 22°
2026-05-05 18:09 27.93729 -15.38415 334 ft 156 kts 22°
2026-05-05 18:09 27.94759 -15.37901 858 ft 167 kts 26°
2026-05-05 18:09 27.95821 -15.37303 1445 ft 178 kts 26°
2026-05-05 18:10 27.96985 -15.36773 2116 ft 183 kts 19°
2026-05-05 18:10 27.98267 -15.36296 2607 ft 203 kts 19°
2026-05-05 18:10 27.99651 -15.35764 3144 ft 221 kts 19°
2026-05-05 18:10 28.01176 -15.35145 3677 ft 240 kts 20°
2026-05-05 18:11 28.02707 -15.34504 3940 ft 256 kts 20°
2026-05-05 18:11 28.04383 -15.33789 3988 ft 258 kts 20°
2026-05-05 18:11 28.06075 -15.33059 3995 ft 258 kts 20°
2026-05-05 18:11 28.07778 -15.32320 3991 ft 257 kts 20°
2026-05-05 18:12 28.09448 -15.31595 4004 ft 258 kts 20°
2026-05-05 18:12 28.11153 -15.30856 4008 ft 258 kts 20°
2026-05-05 18:12 28.12844 -15.30196 4021 ft 260 kts 11°
2026-05-05 18:12 28.14669 -15.30433 4485 ft 270 kts 336°
2026-05-05 18:13 28.16300 -15.31364 5529 ft 267 kts 333°
2026-05-05 18:13 28.17991 -15.32279 6439 ft 271 kts 334°
2026-05-05 18:13 28.19726 -15.33175 7289 ft 276 kts 334°
2026-05-05 18:13 28.21495 -15.34068 8120 ft 280 kts 333°
2026-05-05 18:14 28.23292 -15.34965 8940 ft 285 kts 333°
2026-05-05 18:14 28.25110 -15.35867 9741 ft 289 kts 332°
2026-05-05 18:14 28.26967 -15.36785 10474 ft 295 kts 332°
2026-05-05 18:14 28.28920 -15.37754 10937 ft 311 kts 331°
2026-05-05 18:15 28.30957 -15.38768 11318 ft 329 kts 332°
2026-05-05 18:15 28.33117 -15.39838 11741 ft 344 kts 332°
2026-05-05 18:15 28.35290 -15.40908 12417 ft 350 kts 331°
2026-05-05 18:15 28.37535 -15.42007 13189 ft 352 kts 330°
2026-05-05 18:16 28.39814 -15.43127 13922 ft 355 kts 330°
2026-05-05 18:16 28.42077 -15.44246 14625 ft 359 kts 330°
2026-05-05 18:16 28.44383 -15.45387 15316 ft 362 kts 329°
2026-05-05 18:16 28.46725 -15.46545 15987 ft 366 kts 329°
2026-05-05 18:17 28.49059 -15.47699 16643 ft 370 kts 329°
2026-05-05 18:17 28.51439 -15.48876 17310 ft 372 kts 329°
2026-05-05 18:17 28.53839 -15.50064 17953 ft 375 kts 329°
2026-05-05 18:17 28.56299 -15.51141 18560 ft 383 kts 334°
2026-05-05 18:18 28.58874 -15.51973 19112 ft 393 kts 339°
2026-05-05 18:18 28.61610 -15.52561 19679 ft 401 kts 343°
2026-05-05 18:18 28.64365 -15.53047 20236 ft 405 kts 344°
2026-05-05 18:18 28.67156 -15.53519 20806 ft 408 kts 344°
2026-05-05 18:19 28.69980 -15.53999 21402 ft 409 kts 344°
2026-05-05 18:19 28.72810 -15.54482 22072 ft 409 kts 343°
2026-05-05 18:19 28.75647 -15.54973 22614 ft 412 kts 343°
2026-05-05 18:19 28.78476 -15.55466 23093 ft 416 kts 343°
2026-05-05 18:20 28.81344 -15.55967 23583 ft 419 kts 343°
2026-05-05 18:20 28.84279 -15.56479 24068 ft 423 kts 343°
2026-05-05 18:20 28.87182 -15.56985 24477 ft 428 kts 343°
2026-05-05 18:20 28.90168 -15.57508 24941 ft 432 kts 343°
2026-05-05 18:21 28.93125 -15.58024 25414 ft 434 kts 343°
2026-05-05 18:21 28.96156 -15.58556 25831 ft 438 kts 343°
2026-05-05 18:21 28.99178 -15.59084 26252 ft 441 kts 342°
2026-05-05 18:21 29.02227 -15.59620 26657 ft 445 kts 342°
2026-05-05 18:22 29.05298 -15.60160 27033 ft 448 kts 343°
2026-05-05 18:22 29.08361 -15.60699 27420 ft 451 kts 342°
2026-05-05 18:22 29.11469 -15.61244 27795 ft 454 kts 343°
2026-05-05 18:22 29.14621 -15.61793 28215 ft 455 kts 342°
2026-05-05 18:23 29.17746 -15.62338 28589 ft 457 kts 343°
2026-05-05 18:23 29.20930 -15.62896 28928 ft 460 kts 343°
2026-05-05 18:23 29.24092 -15.63456 29235 ft 463 kts 343°
2026-05-05 18:23 29.27271 -15.64015 29540 ft 466 kts 342°
2026-05-05 18:24 29.30508 -15.64585 29901 ft 467 kts 343°
2026-05-05 18:24 29.33710 -15.65150 30325 ft 466 kts 342°
2026-05-05 18:24 29.36936 -15.65731 30820 ft 464 kts 341°
2026-05-05 18:24 29.40124 -15.66311 31299 ft 462 kts 341°
2026-05-05 18:25 29.43265 -15.66879 31754 ft 460 kts 341°
2026-05-05 18:25 29.45367 -15.67259 32029 ft 459 kts 341°
2026-05-05 18:25 29.49613 -15.68026 32571 ft 458 kts 341°
2026-05-05 18:25 29.52757 -15.68595 32969 ft 456 kts 341°
2026-05-05 18:26 29.55868 -15.69156 33322 ft 456 kts 340°
2026-05-05 18:26 29.59028 -15.69725 33683 ft 455 kts 340°
2026-05-05 18:26 29.62134 -15.70287 33980 ft 455 kts 340°
2026-05-05 18:26 29.65285 -15.70856 34320 ft 455 kts 340°
2026-05-05 18:27 29.68410 -15.71418 34722 ft 453 kts 340°
2026-05-05 18:27 29.71484 -15.71970 35156 ft 450 kts 340°
2026-05-05 18:27 29.74587 -15.72527 35549 ft 448 kts 340°
2026-05-05 18:27 29.77676 -15.73083 35982 ft 445 kts 340°
2026-05-05 18:28 29.83736 -15.74179 36650 ft 441 kts 340°
2026-05-05 18:28 29.86803 -15.74736 36937 ft 440 kts 340°
2026-05-05 18:28 29.89826 -15.75284 37177 ft 440 kts 339°
2026-05-05 18:29 29.92848 -15.75829 37424 ft 440 kts 339°
2026-05-05 18:29 29.95897 -15.76382 37623 ft 440 kts 339°
2026-05-05 18:29 29.98950 -15.76939 37751 ft 443 kts 339°
2026-05-05 18:29 30.01985 -15.77495 37881 ft 444 kts 339°
2026-05-05 18:30 30.05038 -15.78054 38003 ft 445 kts 339°
2026-05-05 18:30 30.08125 -15.78620 38006 ft 447 kts 340°
2026-05-05 18:30 30.14250 -15.79729 38013 ft 443 kts 340°
2026-05-05 18:31 30.20366 -15.80834 38016 ft 446 kts 340°
2026-05-05 18:31 30.26494 -15.81944 38016 ft 444 kts 340°
2026-05-05 18:32 30.32579 -15.83054 38015 ft 442 kts 341°
2026-05-05 18:32 30.38675 -15.84173 38021 ft 444 kts 341°
2026-05-05 18:33 30.44795 -15.85294 38023 ft 443 kts 341°
2026-05-05 18:33 30.50870 -15.86402 38022 ft 442 kts 341°
2026-05-05 18:34 30.56958 -15.87522 38027 ft 441 kts 342°
2026-05-05 18:34 30.63023 -15.88638 38023 ft 442 kts 342°
2026-05-05 18:35 30.69076 -15.89754 38028 ft 442 kts 342°
2026-05-05 18:35 30.75162 -15.90872 38030 ft 441 kts 342°
2026-05-05 18:36 30.81243 -15.91995 38030 ft 442 kts 343°
2026-05-05 18:36 30.87287 -15.93110 38030 ft 439 kts 343°
2026-05-05 18:37 30.93342 -15.94232 38033 ft 439 kts 343°
2026-05-05 18:37 30.99400 -15.95350 38032 ft 440 kts 344°
2026-05-05 18:38 31.05443 -15.96473 37897 ft 441 kts 344°
2026-05-05 18:38 31.08483 -15.97040 37270 ft 443 kts 345°
2026-05-05 18:38 31.11556 -15.97613 36619 ft 445 kts 345°
2026-05-05 18:39 31.14629 -15.98180 36006 ft 445 kts 346°
2026-05-05 18:39 31.17704 -15.98747 35349 ft 446 kts 346°
2026-05-05 18:39 31.20759 -15.99315 34675 ft 447 kts 347°
2026-05-05 18:39 31.23849 -15.99888 33956 ft 448 kts 347°
2026-05-05 18:40 31.26913 -16.00455 33277 ft 448 kts 347°
2026-05-05 18:40 31.30011 -16.01028 32629 ft 447 kts 347°
2026-05-05 18:40 31.33035 -16.01590 32020 ft 445 kts 348°
2026-05-05 18:40 31.36108 -16.02162 31405 ft 443 kts 348°
2026-05-05 18:41 31.39134 -16.02727 30761 ft 442 kts 348°
2026-05-05 18:41 31.42154 -16.03293 30120 ft 441 kts 348°
2026-05-05 18:41 31.45173 -16.03968 29458 ft 439 kts 345°
2026-05-05 18:41 31.48137 -16.04846 28773 ft 438 kts 341°
2026-05-05 18:42 31.51033 -16.05929 28238 ft 432 kts 338°
2026-05-05 18:42 31.53842 -16.07131 27810 ft 426 kts 337°
2026-05-05 18:42 31.56616 -16.08225 27376 ft 422 kts 340°
2026-05-05 18:42 31.59396 -16.09224 26939 ft 417 kts 340°
2026-05-05 18:43 31.62192 -16.10206 26496 ft 412 kts 340°
2026-05-05 18:43 31.64911 -16.11155 26054 ft 408 kts 340°
2026-05-05 18:43 31.67644 -16.12108 25620 ft 404 kts 340°
2026-05-05 18:43 31.70304 -16.13032 25195 ft 400 kts 340°
2026-05-05 18:44 31.72984 -16.13965 24750 ft 397 kts 340°
2026-05-05 18:44 31.75600 -16.14875 24311 ft 394 kts 340°
2026-05-05 18:44 31.78212 -16.15785 23870 ft 391 kts 340°
2026-05-05 18:44 31.80821 -16.16693 23443 ft 388 kts 340°
2026-05-05 18:45 31.83319 -16.17563 23046 ft 385 kts 340°
2026-05-05 18:45 31.85861 -16.18452 22626 ft 382 kts 340°
2026-05-05 18:45 31.88386 -16.19334 22197 ft 380 kts 340°
2026-05-05 18:45 31.90929 -16.20224 21753 ft 378 kts 340°
2026-05-05 18:46 31.93440 -16.21100 21320 ft 376 kts 340°
2026-05-05 18:46 31.95957 -16.21980 20887 ft 373 kts 340°
2026-05-05 18:46 31.98443 -16.22848 20461 ft 371 kts 340°
2026-05-05 18:46 32.00877 -16.23700 20040 ft 369 kts 340°
2026-05-05 18:47 32.03344 -16.24563 19612 ft 366 kts 341°
2026-05-05 18:47 32.05772 -16.25413 19181 ft 365 kts 340°
2026-05-05 18:47 32.08218 -16.26271 18751 ft 362 kts 341°
2026-05-05 18:47 32.10619 -16.27113 18338 ft 360 kts 341°
2026-05-05 18:48 32.13009 -16.27948 17905 ft 358 kts 341°
2026-05-05 18:48 32.15411 -16.28787 17472 ft 356 kts 341°
2026-05-05 18:48 32.17785 -16.29618 17044 ft 354 kts 341°
2026-05-05 18:48 32.20127 -16.30409 16620 ft 352 kts 342°
2026-05-05 18:49 32.22503 -16.31195 16185 ft 351 kts 342°
2026-05-05 18:49 32.24829 -16.31967 15760 ft 349 kts 342°
2026-05-05 18:49 32.27161 -16.32741 15326 ft 347 kts 342°
2026-05-05 18:49 32.29511 -16.33522 14895 ft 345 kts 342°
2026-05-05 18:50 32.31818 -16.34292 14469 ft 343 kts 342°
2026-05-05 18:50 32.34121 -16.35061 14044 ft 341 kts 342°
2026-05-05 18:50 32.36389 -16.35819 13629 ft 339 kts 342°
2026-05-05 18:50 32.38674 -16.36583 13211 ft 337 kts 342°
2026-05-05 18:51 32.40922 -16.37335 12796 ft 335 kts 342°
2026-05-05 18:51 32.43173 -16.38089 12381 ft 333 kts 342°
2026-05-05 18:51 32.45386 -16.38831 11962 ft 332 kts 342°
2026-05-05 18:51 32.47595 -16.39571 11548 ft 330 kts 342°
2026-05-05 18:52 32.49823 -16.40319 11141 ft 328 kts 342°
2026-05-05 18:52 32.52014 -16.41054 10723 ft 326 kts 342°
2026-05-05 18:52 32.54199 -16.41790 10320 ft 324 kts 343°
2026-05-05 18:52 32.56329 -16.42502 10151 ft 312 kts 343°
2026-05-05 18:53 32.58369 -16.43185 10113 ft 297 kts 342°
2026-05-05 18:53 32.60302 -16.43835 10057 ft 283 kts 342°
2026-05-05 18:53 32.62203 -16.44475 9732 ft 281 kts 342°
2026-05-05 18:53 32.64074 -16.45109 9417 ft 278 kts 342°
2026-05-05 18:54 32.65921 -16.45734 9104 ft 276 kts 342°
2026-05-05 18:54 32.67764 -16.46358 8779 ft 274 kts 343°
2026-05-05 18:54 32.69591 -16.46974 8468 ft 272 kts 343°
2026-05-05 18:54 32.71414 -16.47590 8150 ft 271 kts 343°
2026-05-05 18:55 32.73228 -16.48201 7832 ft 270 kts 343°
2026-05-05 18:55 32.75023 -16.48809 7514 ft 268 kts 343°
2026-05-05 18:55 32.76816 -16.49414 7196 ft 265 kts 344°
2026-05-05 18:55 32.78529 -16.50184 6870 ft 263 kts 330°
2026-05-05 18:56 32.79970 -16.51542 6548 ft 262 kts 313°
2026-05-05 18:56 32.81160 -16.53155 6240 ft 260 kts 311°
2026-05-05 18:56 32.82348 -16.54830 6100 ft 267 kts 311°
2026-05-05 18:56 32.83407 -16.56664 6079 ft 270 kts 291°
2026-05-05 18:57 32.83613 -16.58842 5906 ft 268 kts 261°
2026-05-05 18:57 32.82898 -16.60851 5513 ft 267 kts 231°
2026-05-05 18:57 32.81509 -16.62242 5117 ft 258 kts 212°
2026-05-05 18:57 32.79967 -16.63358 4471 ft 261 kts 210°
2026-05-05 18:58 32.78444 -16.64463 4080 ft 257 kts 211°
2026-05-05 18:58 32.76918 -16.65592 3776 ft 257 kts 211°
2026-05-05 18:58 32.75402 -16.66739 3486 ft 257 kts 211°
2026-05-05 18:58 32.73939 -16.67856 3205 ft 256 kts 211°
2026-05-05 18:59 32.72465 -16.68978 2926 ft 248 kts 211°
2026-05-05 18:59 32.71022 -16.70077 2680 ft 241 kts 211°
2026-05-05 18:59 32.69675 -16.71106 2707 ft 222 kts 210°
2026-05-05 18:59 32.68377 -16.72091 2747 ft 218 kts 210°
2026-05-05 19:00 32.67121 -16.73045 2575 ft 212 kts 210°
2026-05-05 19:00 32.65918 -16.73962 2372 ft 198 kts 211°
2026-05-05 19:00 32.64813 -16.74866 2078 ft 187 kts 213°
2026-05-05 19:00 32.63793 -16.75758 1774 ft 176 kts 214°
2026-05-05 19:01 32.62986 -16.76806 1658 ft 169 kts 238°
2026-05-05 19:01 32.62587 -16.78083 1342 ft 167 kts 266°
2026-05-05 19:01 32.62740 -16.79392 1265 ft 154 kts 300°
2026-05-05 19:01 32.63422 -16.80300 1089 ft 145 kts 333°
2026-05-05 19:02 32.64336 -16.80669 964 ft 133 kts 359°
2026-05-05 19:02 32.65236 -16.80611 770 ft 131 kts 14°
2026-05-05 19:02 32.66139 -16.80420 699 ft 131 kts 11°
2026-05-05 19:02 32.67065 -16.80269 686 ft 131 kts 15°
2026-05-05 19:03 32.67848 -16.79759 496 ft 133 kts 44°
2026-05-05 19:03 32.68475 -16.78999 338 ft 126 kts 43°
2026-05-05 19:03 32.69078 -16.78277 175 ft 121 kts 43°
2026-05-05 19:03 32.69464 -16.77823 180 ft 99 kts 43°
2026-05-05 19:04 32.69686 -16.77563 195 ft 73 kts 44°
2026-05-05 19:04 32.69861 -16.77360 200 ft 43 kts 45°
2026-05-05 19:04 32.69951 -16.77250 200 ft 7 kts 53°
2026-05-05 19:04 32.69922 -16.77181 200 ft 9 kts 179°
2026-05-05 19:05 32.69832 -16.77188 200 ft 10 kts 208°
2026-05-05 19:05 32.69761 -16.77275 195 ft 16 kts 226°
2026-05-05 19:05 32.69675 -16.77379 187 ft 16 kts 228°
2026-05-05 19:05 32.69590 -16.77483 183 ft 17 kts 226°
2026-05-05 19:06 32.69511 -16.77580 181 ft 14 kts 225°
2026-05-05 19:06 32.69454 -16.77651 181 ft 8 kts 226°
2026-05-05 19:06 32.69418 -16.77696 181 ft 8 kts 226°
2026-05-05 19:06 32.69378 -16.77735 181 ft 5 kts 172°
2026-05-05 19:07 32.69347 -16.77705 181 ft 3 kts 138°
2026-05-05 19:07 32.69334 -16.77692 181 ft 0 kts 137°